This is the latest recevied weather packets stored in our database for station/object KD2RHT-13. If no packets are shown the sender has not sent any weather packets the latest 1 day(s).
| Time | Temp. | Humidity | Pressure | Rain* | Wind** | Luminosity | Snow |
|---|---|---|---|---|---|---|---|
| 1778087048 | 8.89° C | 99% | 1009.4 hPa | 0 mm | - | 169 W/m² | - |
| 1778086445 | 8.33° C | 99% | 1009.7 hPa | 0 mm | - | 149 W/m² | - |
| 1778085536 | 8.33° C | 99% | 1009.7 hPa | 0 mm | - | 144 W/m² | - |
| 1778084925 | 8.33° C | 99% | 1009.7 hPa | 0 mm | - | 209 W/m² | - |
| 1778083412 | 7.78° C | 99% | 1010 hPa | 0 mm | - | 105 W/m² | - |
| 1778081679 | 7.22° C | 99% | 1010.4 hPa | 1.27 mm | - | 64 W/m² | - |
| 1778081073 | 7.22° C | 99% | 1010.4 hPa | 0 mm | - | 88 W/m² | - |
| 1778080772 | 7.22° C | 99% | 1010 hPa | 0 mm | - | 62 W/m² | - |
| 1778080166 | 7.22° C | 99% | 1009.7 hPa | 1.78 mm | - | 55 W/m² | - |
| 1778079255 | 7.78° C | 99% | 1009.7 hPa | 0 mm | - | 70 W/m² | - |
| 1778078953 | 7.22° C | 99% | 1009.7 hPa | 1.78 mm | - | 72 W/m² | - |
| 1778078649 | 7.22° C | 99% | 1009.7 hPa | 1.78 mm | - | 81 W/m² | - |
| 1778078348 | 7.78° C | 99% | 1009.4 hPa | 1.27 mm | - | 112 W/m² | - |
| 1778076836 | 7.22° C | 99% | 1009.7 hPa | 3.05 mm | - | 74 W/m² | - |
| 1778076534 | 7.22° C | 99% | 1009.7 hPa | 1.78 mm | - | 60 W/m² | - |
| 1778075017 | 7.22° C | 99% | 1010 hPa | 1.78 mm | - | 33 W/m² | - |
| 1778074411 | 7.22° C | 99% | 1010.4 hPa | 3.05 mm | - | 35 W/m² | - |
| 1778073805 | 6.67° C | 99% | 1010 hPa | 1.27 mm | - | 39 W/m² | - |
| 1778073503 | 7.22° C | 99% | 1010 hPa | 3.05 mm | - | 35 W/m² | - |
| 1778070173 | 6.67° C | 99% | 1010 hPa | 1.27 mm | - | 20 W/m² | - |
| 1778069568 | 6.67° C | 99% | 1009.7 hPa | 0 mm | - | 22 W/m² | - |
| 1778068963 | 7.22° C | 99% | 1010 hPa | 1.78 mm | - | 27 W/m² | - |
| 1778068056 | 7.22° C | 99% | 1009.7 hPa | 1.78 mm | - | 20 W/m² | - |
| 1778066240 | 7.22° C | 99% | 1010.4 hPa | 1.78 mm | - | 9 W/m² | - |
| 1778065634 | 7.22° C | 99% | 1010.4 hPa | 3.05 mm | - | 6 W/m² | - |
* Rain latest hour (hover to see other rain measurements)
** Current wind speed in m/s (hover to see current wind gust speed)